Wind_Speed
5 5 2 4 4 5 1 3 1 2 3 2 2 4 6 3 3 3 6 15 25 28 19 17 14 12 12 13 13 14 15 13 14 16 15 17 17 16 16 17 17 18 18 17 17 16 18 19 20
3 2 3 3 4 3 4 3 6 5 5 7 5 3 4 2 2 5 17 12 29 26 23 18 16 13 13 13 13 14 15 13 13 15 16 16 14 15 15 16 17 18 18 17 17 18 19 18 19
2 1 4 4 3 4 4 4 5 2 6 2 3 4 5 4 2 18 5 25 30 26 21 19 17 14 14 13 13 14 14 13 13 14 15 15 14 14 14 16 16 17 16 15 15 16 17 16 18
2 4 4 4 4 3 3 6 4 5 0 2 3 5 2 3 15 14 22 28 31 25 22 18 18 15 14 13 13 13 13 12 13 13 13 13 13 13 13 15 15 16 15 14 13 15 16 17 18
4 3 4 3 3 2 1 4 5 3 3 2 2 3 2 6 5 15 28 30 29 24 21 18 19 16 15 14 14 12 13 13 14 14 14 13 12 12 14 14 14 15 14 13 14 17 17 17 18
4 3 4 2 2 4 2 4 4 3 1 4 5 4 3 5 14 23 27 29 26 24 22 20 19 18 16 15 15 14 12 14 14 14 14 14 13 14 15 15 15 16 14 14 15 16 16 17 18
6 4 5 4 3 0 4 7 3 5 5 3 9 4 3 3 18 28 27 27 26 24 22 22 21 19 17 16 16 15 12 14 14 14 15 14 14 14 16 15 15 15 15 15 16 16 16 16 16
4 4 4 2 5 3 4 5 5 4 5 3 4 5 4 7 22 28 27 27 26 26 24 24 23 21 19 19 16 14 15 15 15 15 15 14 14 15 16 16 16 15 15 15 15 15 14 13 11
3 4 2 4 6 4 5 3 1 1 5 1 3 6 3 22 26 27 26 26 27 27 27 25 25 24 22 20 19 16 15 14 15 15 15 15 14 15 15 15 16 16 15 15 15 15 15 16 16
4 4 7 3 4 4 5 1 7 3 2 2 1 1 7 29 30 24 21 20 22 25 29 28 27 26 25 23 22 20 18 16 15 15 16 15 14 14 15 15 15 16 15 15 13 14 15 14 15
3 5 5 2 2 3 5 0 2 7 3 7 8 5 9 16 22 22 24 26 28 27 31 31 30 29 28 26 25 23 21 19 18 17 17 16 15 15 15 15 16 17 16 16 16 16 14 14 15
4 1 4 4 0 4 5 3 2 5 7 2 9 8 11 11 20 23 25 29 30 31 33 32 31 31 30 29 28 26 25 23 21 21 19 19 18 18 17 16 17 17 19 17 17 15 14 13 14
3 3 3 2 2 3 3 3 4 6 8 4 6 10 12 13 21 25 26 29 30 32 33 34 33 33 32 31 30 28 28 27 25 24 23 22 21 20 18 18 18 19 20 19 18 16 15 14 15
4 4 4 2 2 2 3 2 1 2 4 3 4 10 10 11 24 18 22 27 33 34 36 35 36 34 33 33 32 30 29 29 29 28 26 25 24 21 21 21 20 21 22 22 19 18 16 16 17
4 4 3 3 3 2 4 4 7 5 2 3 7 7 8 13 12 25 36 35 38 38 37 38 38 36 36 35 34 33 30 29 32 32 31 29 28 25 24 25 24 24 25 23 20 19 18 17 18
4 5 3 2 4 1 4 7 4 4 4 5 6 8 8 11 21 29 32 35 37 37 37 38 39 39 38 38 36 36 34 30 31 33 35 34 31 29 29 28 27 27 28 26 24 23 21 21 21
5 3 3 5 5 2 2 5 4 3 5 7 6 8 9 10 16 34 36 37 36 38 40 37 40 42 41 39 39 38 37 35 31 31 35 38 36 35 33 32 30 30 31 30 28 26 24 25 24
6 3 2 3 3 2 2 8 8 8 4 9 8 9 9 10 16 29 35 40 39 38 39 40 39 43 43 41 39 38 38 38 33 33 34 35 39 40 36 35 34 33 34 34 31 30 27 25 24
6 4 2 2 1 2 5 6 11 10 6 10 10 10 11 11 18 24 25 28 35 38 38 40 41 44 43 39 37 32 32 33 34 35 35 35 36 41 41 38 37 37 37 39 38 33 29 24 26
3 3 2 3 1 2 4 9 9 9 11 7 9 10 10 8 10 10 15 19 24 33 39 40 43 44 45 41 43 34 36 32 36 36 36 37 38 39 42 43 41 40 40 39 39 39 31 26 31
3 5 4 4 1 4 5 8 6 5 4 6 6 6 7 10 10 8 8 10 16 24 31 38 44 45 46 44 35 33 27 30 33 37 36 38 38 38 38 40 40 43 43 43 44 45 40 30 36
4 5 4 4 3 2 2 5 6 5 10 7 10 7 7 8 5 5 9 12 10 12 17 26 31 37 41 41 37 38 36 31 36 35 43 37 39 40 40 41 43 44 46 45 46 46 47 31 29
5 4 3 3 4 3 3 2 7 5 6 5 8 8 8 8 7 8 10 13 14 17 13 8 15 25 32 35 37 39 32 30 28 32 32 38 41 40 40 41 43 44 44 44 44 43 44 41 35
8 6 7 4 3 1 5 4 5 3 1 4 5 7 8 9 9 10 16 17 16 16 16 13 7 9 19 27 32 37 36 32 29 31 32 35 36 38 39 37 41 43 44 44 45 46 47 48 45
4 6 2 3 3 5 1 3 8 2 3 2 4 7 8 8 9 9 11 20 21 20 19 17 14 9 7 16 23 30 35 37 37 36 33 34 34 35 37 38 37 40 43 44 43 45 46 48 44
6 7 5 7 4 3 1 4 5 4 6 5 5 6 8 9 7 7 11 17 21 21 21 20 18 15 11 10 16 21 27 32 35 36 35 35 35 36 36 37 39 42 41 40 40 40 44 45 47
5 4 4 6 3 3 4 5 5 5 8 6 7 8 9 9 8 7 10 14 17 19 20 19 19 17 14 12 13 16 21 24 28 30 32 34 35 34 34 33 34 36 39 41 36 36 38 41 43
3 7 4 3 2 3 3 3 5 7 5 6 9 8 7 7 9 8 14 17 19 20 20 20 19 19 19 16 15 15 16 19 22 25 29 32 33 33 33 33 33 34 36 38 38 36 36 36 39
3 3 3 4 5 5 2 5 4 11 8 8 5 5 6 7 8 7 13 17 18 20 23 23 21 21 22 21 19 17 17 18 19 23 26 29 30 32 32 33 33 34 36 38 39 36 35 37 38
2 6 6 5 5 2 3 5 7 9 8 6 3 3 5 5 5 4 9 14 20 21 23 24 24 24 23 21 21 22 22 21 22 24 26 26 28 29 31 32 34 34 35 36 37 36 36 37 36
Wind_Direction
313 306 250 40 54 65 218 244 231 140 149 240 112 144 159 99 150 202 152 155 162 160 158 154 147 147 131 129 126 124 113 112 110 111 107 112 107 104 101 102 103 107 105 100 95 101 104 97 95
315 250 49 81 92 85 263 263 175 192 153 121 99 96 64 107 94 107 140 166 167 161 160 160 156 151 137 136 132 124 116 117 116 116 110 119 114 107 103 104 106 112 113 106 97 101 107 102 99
217 36 86 96 113 169 198 209 204 148 145 176 87 47 140 170 53 156 175 159 165 167 165 162 160 152 142 138 131 122 116 118 116 120 120 121 114 109 111 111 112 116 115 107 103 106 110 105 103
181 22 38 88 185 231 228 181 198 132 310 90 104 73 13 210 158 173 159 161 163 166 167 166 163 156 147 141 134 124 123 124 123 125 125 118 113 109 112 113 114 118 118 114 103 113 109 109 112
49 54 59 70 288 287 250 156 163 144 159 126 103 172 360 152 151 162 161 167 169 171 174 170 168 163 157 150 138 140 136 137 135 131 129 123 124 123 121 117 116 119 119 109 109 114 114 111 114
41 96 64 154 283 327 62 149 157 145 230 148 83 111 194 197 161 163 166 172 179 174 175 173 173 170 163 156 150 152 150 145 144 138 136 137 140 136 130 127 125 125 122 112 116 117 117 118 118
120 87 177 167 187 309 198 143 191 175 141 244 150 125 275 215 178 168 171 175 180 180 178 179 177 177 172 164 161 158 166 159 153 150 149 155 148 144 138 135 130 131 126 118 123 129 128 131 130
104 91 131 199 180 241 165 167 150 160 214 86 163 177 212 206 179 174 175 178 181 185 185 184 182 182 179 173 173 174 176 169 163 161 159 158 154 153 145 138 134 130 130 125 130 132 130 134 142
126 66 158 197 150 227 160 138 166 17 120 149 195 157 224 168 173 175 175 181 184 187 191 189 187 187 185 182 181 182 184 179 173 169 167 165 163 154 149 147 139 140 141 133 139 132 139 136 136
87 114 205 204 184 185 165 151 162 150 134 254 290 10 149 161 171 171 179 185 187 187 193 193 193 191 189 187 187 188 187 187 184 180 178 173 169 161 159 155 149 152 153 147 145 140 145 148 148
148 172 197 179 129 157 139 207 190 133 232 214 204 171 157 163 173 184 191 192 192 192 194 198 197 196 193 192 192 193 194 194 192 190 187 183 177 172 171 165 163 164 159 162 155 152 154 154 158
111 144 176 175 88 111 158 128 235 204 217 277 208 172 166 177 187 191 200 200 199 200 200 200 201 200 198 198 196 198 198 199 198 199 196 192 188 185 183 180 176 174 172 170 168 170 172 174 170
119 174 92 98 109 102 117 198 232 256 260 26 125 157 183 194 204 207 205 207 206 208 207 204 203 203 203 204 202 203 206 206 207 205 204 203 198 194 193 191 188 184 182 184 183 184 184 185 182
162 132 133 176 183 135 154 264 98 310 301 206 156 192 196 204 207 210 214 212 213 214 213 208 207 207 207 208 209 208 209 215 212 210 212 210 208 204 201 200 198 195 193 191 196 195 193 193 190
107 104 23 203 184 181 139 268 239 257 315 230 230 232 226 226 226 220 217 217 218 219 218 216 212 211 211 212 214 214 211 210 219 217 217 215 212 213 212 207 205 205 202 202 203 202 202 200 193
71 50 113 279 149 175 116 263 264 346 149 262 238 246 240 242 232 231 233 229 225 225 223 222 219 216 216 216 217 219 220 216 217 222 219 217 219 221 220 216 214 210 208 207 208 207 203 203 201
14 181 188 307 187 131 124 254 257 195 9 308 258 240 239 248 242 240 239 236 235 230 228 226 223 221 221 222 223 223 224 223 219 217 222 222 220 225 227 226 224 217 213 213 212 210 208 202 200
189 193 231 242 219 130 156 263 287 276 277 270 281 268 250 247 246 241 241 240 239 236 233 231 227 225 225 226 225 226 228 229 223 221 220 228 226 226 231 231 229 224 219 217 216 215 210 210 200
135 131 152 256 133 162 247 267 275 291 293 279 269 258 262 252 260 255 250 248 243 240 236 233 231 229 226 220 217 216 218 220 224 225 226 225 231 230 229 232 230 228 226 225 220 212 213 206 202
102 101 250 280 38 143 348 277 265 269 265 240 258 270 267 283 289 270 262 254 244 242 238 236 234 234 231 222 224 218 222 222 226 227 227 226 227 230 231 229 230 231 228 225 223 219 203 207 204
172 160 198 209 42 54 343 305 331 299 269 280 264 277 285 272 285 310 313 282 256 244 240 237 236 234 233 228 219 219 221 227 227 227 227 227 228 228 227 230 228 234 234 227 228 223 214 198 207
162 198 152 148 88 210 20 284 310 313 298 328 330 336 337 347 358 353 1 14 358 308 270 254 246 240 236 230 218 217 218 218 225 225 231 228 230 234 239 239 233 235 235 228 232 227 222 209 199
197 113 122 91 97 75 319 87 271 339 321 356 25 14 1 7 18 12 9 13 22 21 11 308 262 249 244 236 225 225 222 229 232 233 235 239 240 240 243 243 240 232 231 234 236 228 220 216 212
147 82 50 55 87 333 240 144 289 234 158 23 4 13 15 14 11 10 26 30 28 25 23 20 358 272 249 242 236 232 230 229 232 232 232 238 241 241 240 240 241 240 239 236 236 236 233 224 220
82 81 357 346 4 220 61 99 243 294 7 32 63 19 12 11 16 12 10 14 25 27 25 21 15 359 280 247 243 242 244 244 245 246 241 241 242 242 246 243 237 236 237 238 238 233 231 230 223
183 156 158 196 195 248 85 227 245 114 105 87 51 356 3 25 20 32 23 15 18 16 16 14 8 2 338 291 261 253 251 252 254 257 259 258 256 258 258 253 248 245 245 246 242 237 236 234 231
189 179 156 103 28 69 217 287 327 89 90 56 33 35 21 16 11 1 19 28 20 17 13 5 360 353 340 313 284 267 261 257 258 262 264 264 264 264 263 262 258 254 250 246 243 243 243 239 238
158 159 75 12 160 258 274 232 216 106 111 61 42 22 5 3 8 0 10 12 10 8 1 357 349 339 338 332 312 295 282 271 266 264 264 265 268 267 266 262 261 260 258 255 249 243 246 247 246
133 167 72 129 156 176 181 252 194 149 141 106 78 21 349 354 348 349 3 9 10 11 13 10 1 345 342 340 324 314 303 290 277 270 270 271 273 272 270 268 265 261 258 256 254 250 246 245 245
189 179 154 151 218 240 149 261 141 147 148 128 103 360 342 348 358 6 4 10 15 17 19 19 16 10 5 353 336 326 316 306 293 286 285 286 284 281 278 277 272 266 261 260 259 254 251 247 245
Height
795 795 795 796 826 837 841 833 819 820 820 812 811 816 820 821 826 843 823 826 829 834 838 841 844 844 844 846 847 847 848 850 850 850 851 852 852 853 853 853 854 854 855 856 856 856 856 856 856
795 795 796 810 839 851 849 827 827 818 815 816 815 817 819 826 821 824 826 827 831 834 838 842 844 846 847 848 849 850 850 852 853 852 853 855 855 856 856 856 857 858 858 858 858 859 859 860 859
795 795 804 826 847 848 843 822 821 815 815 813 816 816 819 823 821 821 823 826 831 836 839 842 845 847 848 849 850 851 851 854 854 855 856 857 857 858 859 858 859 860 862 862 861 862 862 862 862
795 797 813 833 830 822 821 819 819 818 813 811 817 825 818 817 818 820 823 827 832 836 840 843 846 848 849 850 851 852 854 856 856 858 859 859 860 860 862 862 863 863 864 864 865 865 865 866 865
796 805 831 834 827 818 817 817 822 817 816 815 814 826 824 818 819 821 824 828 832 836 840 843 845 848 850 851 852 854 856 858 858 859 860 861 862 863 864 865 865 866 866 867 867 868 868 869 869
808 813 839 841 830 819 814 816 818 818 818 817 821 825 825 821 820 822 825 829 833 836 840 843 846 848 850 852 854 855 856 857 859 859 860 862 863 864 864 866 867 868 868 869 869 870 871 871 871
810 824 835 831 830 822 816 816 820 820 818 818 818 829 825 822 822 823 826 830 833 837 840 843 846 848 850 853 855 856 857 859 859 860 862 863 864 866 865 867 867 870 870 871 871 871 873 873 873
808 817 829 825 833 823 813 815 813 815 819 814 814 828 828 819 823 825 828 830 833 836 839 842 845 847 850 852 854 855 858 859 860 862 863 864 866 867 867 868 869 871 872 872 873 874 875 875 875
802 828 836 824 829 817 813 814 812 811 815 813 814 815 812 815 822 827 829 831 833 835 838 841 844 846 849 852 854 856 858 860 861 862 863 864 867 867 868 868 869 871 873 874 874 875 875 877 878
812 830 825 812 812 814 812 813 815 815 816 816 813 813 812 815 820 824 828 830 830 833 836 839 842 845 848 851 854 856 858 859 861 862 864 865 867 867 868 868 870 872 874 875 875 876 877 878 879
812 820 815 810 807 810 811 813 812 819 821 814 814 812 814 816 820 823 824 826 828 831 833 836 839 842 846 849 852 854 856 858 860 862 864 865 866 867 868 868 870 872 873 873 875 877 879 880 881
812 808 810 809 808 808 814 812 813 817 810 805 805 808 813 816 817 819 821 823 826 829 831 833 837 840 844 847 849 852 854 857 859 861 862 863 865 866 867 869 870 872 873 874 876 877 878 880 882
809 808 809 809 810 810 811 814 816 815 808 807 806 809 813 814 815 816 819 823 826 828 830 832 835 837 840 843 847 849 851 854 857 859 860 862 863 865 867 868 870 872 873 874 875 877 878 879 881
807 808 810 812 812 813 816 817 813 809 806 809 811 810 812 814 812 816 818 819 821 823 826 830 832 835 838 841 844 847 850 852 854 856 858 861 863 865 866 868 870 871 872 874 875 875 877 878 880
809 815 812 815 813 816 815 820 820 809 809 809 813 813 813 811 815 814 812 814 816 818 823 826 830 834 836 838 841 844 846 849 850 852 855 857 860 863 864 866 868 870 872 874 876 877 877 879 880
818 825 830 815 817 817 817 829 812 809 807 809 811 815 813 809 809 811 812 812 814 818 819 823 827 830 832 835 837 840 843 845 847 849 852 854 857 860 862 863 865 867 869 872 873 874 875 876 877
833 836 831 823 819 819 820 822 811 808 810 811 810 812 810 807 803 804 806 808 810 812 815 818 822 825 828 831 834 836 839 842 844 847 848 851 853 856 858 860 862 865 866 869 870 872 874 874 875
834 832 829 826 819 819 824 825 818 811 810 811 811 809 807 805 795 794 797 800 805 808 811 815 817 819 823 827 831 834 836 838 840 842 844 846 849 851 854 856 859 861 863 865 867 869 871 873 875
825 823 824 822 818 822 825 829 820 813 812 812 807 806 803 799 788 789 792 795 798 801 805 807 811 813 817 822 825 828 829 832 834 836 838 841 843 846 849 851 854 856 858 859 862 864 869 871 873
816 822 825 825 820 822 826 825 820 815 806 802 801 798 799 796 789 787 788 790 792 793 796 800 802 806 809 813 815 820 822 825 827 830 832 834 837 839 841 844 846 849 852 854 857 859 861 865 868
821 828 828 827 827 827 833 830 824 807 805 796 796 797 796 794 789 785 785 787 788 789 789 790 793 797 801 806 811 814 818 820 823 824 825 827 830 833 835 838 840 841 844 845 847 850 854 855 859
825 819 822 825 834 843 839 852 831 815 810 802 799 798 795 793 789 787 785 785 786 787 787 788 791 794 797 800 804 805 807 810 811 814 818 821 824 826 828 831 832 833 835 836 838 841 843 851 848
819 817 822 827 841 841 844 854 832 823 812 801 804 803 800 795 791 788 787 787 787 785 785 785 787 790 793 796 800 801 803 805 809 811 813 815 818 820 821 823 824 825 827 829 831 834 838 840 841
818 824 837 847 849 857 847 846 840 823 808 806 806 805 802 797 794 791 788 788 787 786 785 785 785 787 790 792 795 797 799 801 803 805 807 810 811 814 816 816 818 819 820 821 822 824 826 827 830
818 830 853 858 869 859 851 852 834 814 810 807 809 806 804 802 799 797 794 791 789 788 787 787 786 787 789 791 792 794 797 799 799 800 802 804 806 807 809 811 813 812 812 813 814 814 815 817 820
823 825 849 859 869 852 849 845 822 810 811 812 810 809 808 805 805 803 800 799 796 794 792 791 789 788 788 789 790 791 792 794 796 796 798 799 799 800 803 804 805 807 808 809 809 809 809 808 809
820 829 826 852 916 878 845 831 808 814 820 817 814 812 812 809 806 803 800 800 799 796 794 793 792 791 791 790 789 788 789 789 790 792 792 791 791 792 795 797 798 799 800 802 804 804 803 803 802
808 814 833 854 862 869 843 833 821 825 824 820 818 819 814 810 806 804 801 800 801 800 798 795 794 793 792 790 789 787 786 785 785 786 785 785 786 787 788 789 790 791 794 795 795 795 796 796 795
815 817 824 828 841 848 864 833 815 819 820 821 817 815 813 810 808 807 805 804 803 802 799 796 794 793 791 790 789 786 785 784 782 781 781 781 782 782 781 782 783 783 784 787 787 787 787 786 786
801 807 813 826 838 853 843 830 812 814 816 817 814 812 812 811 811 809 808 808 806 803 800 798 797 794 792 789 787 785 784 783 781 780 779 779 777 778 777 776 776 776 777 779 778 778 778 778 778